Flag for Germany Weather past 2 weeks in Niederkassel, North Rhine-Westphalia, Germany

Now
53 °F

Overcast.


Feels Like: 49 °F
Forecast: 43 / 49 °F
Wind: 10 mph from Southwest

Location: Bonn-Hangelar

Current Time: Oct 21, 2014 at 10:56:08 AM

Latest Report: Oct 21, 2014 at 10:00 AM


Visibility: 19 mi

Pressure: 29.78 "Hg

Humidity: 80%

Dew point: 47 °F

Location of NiederkasselLocation

Historic Weather in Niederkassel — Graph

°F

Niederkassel temperature yesterday

Maximum temperature yesterday: 59 °F (at 2:00 PM)
Minimum temperature yesterday: 52 °F (at 11:00 PM)
Average temperature yesterday: 56 °F

Past Weeks' High & Low Weather Summary

 TemperatureHumidityPressure
High72 °F (Oct 18, 5:00 PM)98% (Oct 12, 10:00 PM)30.08 "Hg (Oct 12, 10:00 PM)
Low48 °F (Oct 12, 7:00 AM)52% (Oct 14, 4:00 PM)29.53 "Hg (Oct 7, 8:00 AM)
Average58 °F80%29.83 "Hg
* Reported Oct 6 9:00 AM — Oct 21 9:00 AM, Niederkassel, Weather by CustomWeather, © 2014

Note: Actual official high and low records may vary slightly from our data, if they occured in-between our weather recording intervals... More about our weather records

Advertising

Niederkassel weather history for previous 24 hours

 ConditionsComfort  
Time TempWeatherWind HumidityBarometerVisibility
9:00 AM
Oct 21
52 °FOvercast.12 mph83%29.80 "Hg16 mi
8:00 AM51 °FPassing clouds.10 mph85%29.82 "Hg22 mi
7:00 AM52 °FOvercast.9 mph87%29.85 "Hg37 mi
6:00 AM51 °FPassing clouds.8 mph90%29.86 "Hg31 mi
5:00 AM51 °FOvercast.8 mph90%29.89 "Hg14 mi
4:00 AM52 °FLow clouds.8 mph91%29.92 "Hg10 mi
3:00 AM51 °FOvercast.8 mph91%29.94 "Hg10 mi
2:00 AM51 °FPassing clouds.8 mph90%29.95 "Hg13 mi
1:00 AM51 °FClear.7 mph90%29.96 "Hg13 mi
12:00 AM51 °FClear.7 mph92%29.97 "Hg9 mi
11:00 PM
Oct 20
52 °FPassing clouds.6 mph89%29.99 "Hg12 mi
10:00 PM53 °FClear.7 mph86%29.99 "Hg17 mi
9:00 PM54 °FPassing clouds.7 mph83%30.00 "Hg25 mi
8:00 PM54 °FPassing clouds.6 mph83%30.00 "Hg25 mi
7:00 PM56 °FPassing clouds.7 mph81%30.00 "Hg25 mi
6:00 PM58 °FScattered clouds.5 mph77%30.00 "Hg25 mi
5:00 PM58 °FScattered clouds.5 mph78%30.01 "Hg25 mi
4:00 PM58 °FPartly sunny.8 mph78%30.03 "Hg25 mi
3:00 PM57 °FSprinkles. Overcast.6 mph80%30.05 "Hg12 mi
2:00 PM59 °FOvercast.8 mph78%30.06 "Hg22 mi
1:00 PM57 °FOvercast.8 mph81%30.08 "Hg25 mi
12:00 PM56 °FOvercast.8 mph83%30.08 "Hg19 mi
11:00 AM56 °FOvercast.8 mph86%30.08 "Hg19 mi
10:00 AM56 °FOvercast.8 mph86%30.07 "Hg16 mi
Weather by CustomWeather, © 2014

See weather overviewHow to use our weather pages